Dansville, NY

12:28 AM EDT on October 01, 2016 (GMT -0400)
Dansville Municipal

Weather History for KDSV - December, 2013

Change the Weather History Date:

Monday, December 23, 2013

  Actual Average Record
Temperature  
Mean Temperature 36 °F -  
Max Temperature 43 °F 36 °F 67 °F (1949)
Min Temperature 28 °F 20 °F -5 °F (1959)
Degree Days  
Heating Degree Days 30    
Moisture  
Dew Point 31 °F    
Average Humidity 78    
Maximum Humidity 97    
Minimum Humidity 57    
Precipitation  
Precipitation 0.00 in - - ()
Sea Level Pressure  
Sea Level Pressure 30.12 in    
Wind  
Wind Speed 4 mph (NW)    
Max Wind Speed 13 mph    
Max Gust Speed 20 mph    
Visibility 9 miles    
Events Rain    
Averages and records for this station are not official NWS values.
T = Trace of Precipitation, MM = Missing Value Source: NWS Daily Summary

Daily Weather History Graph

Daily Weather History Graph

Search for Another Location

Airport or City:

Trip Planner

Search our weather history database for the weather conditions in past years. The results will help you decide how hot, cold, wet, or windy it might be!

Date:

Astronomy

Dec. 23, 2013 Rise Set
Actual Time 7:38 AM EST 4:41 PM EST
Civil Twilight 7:06 AM EST 5:13 PM EST
Nautical Twilight 6:30 AM EST 5:49 PM EST
Astronomical Twilight 5:56 AM EST 6:23 PM EST
Moon 10:57 PM EST (12/23) 10:55 AM EST (12/23)
Length of Visible Light 10h 07m
Length of Day
9h 03m
Waning Gibbous, 68% of the Moon is Illuminated
Dec 23
Waning Gibbous
Dec 25
Last Quarter
Jan 1
New
Jan 7
First Quarter
Jan 15
Full

Hourly Weather History & Observations

Time (EST) Temp. Windchill Dew Point Humidity Pressure Visibility Wind Dir Wind Speed Gust Speed Precip Events Conditions
12:54 AM 43.0 °F - 37.9 °F 82% 29.99 in 10.0 mi Calm Calm - N/A   Overcast
1:54 AM 42.1 °F 39.2 °F 37.9 °F 85% 30.01 in 10.0 mi SSE 4.6 mph - N/A   Overcast
2:30 AM 42.8 °F - 39.2 °F 87% 29.98 in 10.0 mi Calm Calm - N/A   Overcast
2:54 AM 42.1 °F - 39.0 °F 89% 30.01 in 10.0 mi Calm Calm - N/A   Overcast
3:54 AM 42.1 °F - 39.0 °F 89% 30.02 in 10.0 mi Calm Calm - N/A   Overcast
4:54 AM 41.0 °F 37.1 °F 39.0 °F 93% 30.01 in 7.0 mi NW 5.8 mph - 0.00 in Rain Light Rain
5:54 AM 41.0 °F 39.0 °F 39.0 °F 93% 30.01 in 5.0 mi NNW 3.5 mph - 0.00 in   Overcast
6:52 AM 41.0 °F - 39.2 °F 93% 30.00 in 5.0 mi Calm Calm - N/A   Overcast
6:54 AM 41.0 °F - 39.0 °F 93% 30.04 in 5.0 mi Calm Calm - N/A   Overcast
7:33 AM 41.0 °F - 39.2 °F 93% 30.00 in 5.0 mi Calm Calm - N/A   Overcast
7:54 AM 41.0 °F - 39.0 °F 93% 30.05 in 5.0 mi Calm Calm - 0.00 in Rain Light Rain
8:41 AM 41.0 °F 39.0 °F 39.2 °F 93% 30.03 in 2.5 mi NNW 3.5 mph - 0.00 in   Overcast
8:54 AM 39.9 °F 35.8 °F 39.0 °F 97% 30.06 in 2.5 mi NW 5.8 mph - 0.00 in   Overcast
9:03 AM 39.2 °F 32.0 °F 37.4 °F 93% 30.03 in 7.0 mi NNW 11.5 mph - N/A   Overcast
9:54 AM 39.9 °F 34.5 °F 37.0 °F 89% 30.10 in 10.0 mi NW 8.1 mph - N/A   Overcast
10:51 AM 39.2 °F 33.6 °F 32.0 °F 75% 30.09 in 10.0 mi WNW 8.1 mph - N/A   Overcast
10:54 AM 39.9 °F 35.8 °F 30.9 °F 70% 30.12 in 10.0 mi Variable 5.8 mph - N/A   Overcast
11:37 AM 39.2 °F 35.9 °F 32.0 °F 75% 30.08 in 10.0 mi WNW 4.6 mph - N/A   Overcast
11:54 AM 39.0 °F 33.4 °F 30.9 °F 73% 30.12 in 10.0 mi WNW 8.1 mph 16.1 mph N/A   Overcast
12:54 PM 37.9 °F 30.9 °F 30.0 °F 73% 30.13 in 10.0 mi NW 10.4 mph 19.6 mph N/A   Overcast
1:54 PM 37.0 °F 32.4 °F 28.0 °F 70% 30.15 in 10.0 mi WNW 5.8 mph - N/A   Overcast
2:24 PM 37.4 °F 32.8 °F 26.6 °F 65% 30.12 in 10.0 mi WNW 5.8 mph - N/A   Overcast
2:54 PM 37.0 °F 32.4 °F 25.0 °F 62% 30.18 in 10.0 mi Variable 5.8 mph 16.1 mph N/A   Overcast
3:54 PM 35.1 °F 26.9 °F 24.1 °F 64% 30.23 in 10.0 mi NW 11.5 mph 19.6 mph N/A   Overcast
4:54 PM 35.1 °F 28.6 °F 21.0 °F 57% 30.26 in 10.0 mi West 8.1 mph - N/A   Overcast
5:54 PM 34.0 °F 31.0 °F 21.0 °F 59% 30.27 in 10.0 mi Variable 3.5 mph 19.6 mph N/A   Overcast
6:54 PM 33.1 °F 26.1 °F 19.9 °F 59% 30.27 in 10.0 mi WNW 8.1 mph - N/A   Overcast
7:54 PM 33.1 °F 26.9 °F 19.9 °F 59% 30.28 in 10.0 mi Variable 6.9 mph 17.3 mph N/A   Overcast
8:54 PM 30.9 °F 21.2 °F 21.0 °F 67% 30.28 in 10.0 mi NW 12.7 mph - N/A   Mostly Cloudy
9:54 PM 30.0 °F 21.1 °F 21.0 °F 69% 30.28 in 10.0 mi NW 10.4 mph - N/A   Clear
10:54 PM 28.9 °F 21.9 °F 21.0 °F 72% 30.29 in 10.0 mi NW 6.9 mph - N/A   Overcast
11:27 PM 28.4 °F 20.4 °F 19.4 °F 69% 30.24 in 10.0 mi NNW 8.1 mph - N/A   Overcast
11:54 PM 28.0 °F 18.1 °F 19.0 °F 69% 30.30 in 10.0 mi NNW 11.5 mph - N/A   Overcast